Regional Weather Roundup
Issued by NWS

Home | Current Version | Previous Version | Graphics & Text | Print | Product List | Glossary On
Versions: 1 2 3 4 5 6 7 8 9 10 11 12 13 14 15 16 17 18 19 20 21 22 23 24 25 26 27
000
ASUS45 KBOU 181107
RWRCO

WEATHER ROUNDUP FOR COLORADO
NATIONAL WEATHER SERVICE DENVER/BOULDER CO
500 AM MDT MON SEP 18 2017

NOTE: "FAIR" INDICATES FEW OR NO CLOUDS BELOW 12000 FEET WITH NO
SIGNIFICANT WEATHER AND/OR OBSTRUCTIONS TO VISIBILITY.

COZ001>005-013-030-031-181200-
...NORTHWEST COLORADO...

CITY           SKY/WX    TMP DP  RH WIND       PRES   REMARKS
CRAIG          FAIR      35  32  88 CALM      30.15S
HAYDEN         FAIR      44  37  76 E12       30.17F
MEEKER         FAIR      42  36  79 E5        30.17S
RABBIT EARS PA FAIR      36  32  87 W6        30.33S
STEAMBOAT SPGS FAIR      38  35  90 CALM      30.18S
WALDEN         FAIR      34  28  80 SE7       30.23S WCI  28
$$

COZ006>008-011-181200-
...WEST CENTRAL VALLEYS...

CITY           SKY/WX    TMP DP  RH WIND       PRES   REMARKS
GRAND JUNCTION FAIR      57  42  57 E16       30.07F
MONTROSE       MOCLDY    48  46  93 S6        30.17R
EAGLE          FAIR      43  35  73 SE3       30.22R
RIFLE          FAIR      47  38  71 SE3       30.13S
DELTA          FAIR      54  42  62 MISG      30.13S
NUCLA          FAIR      48  41  76 SE8       30.19S
$$

COZ017>023-064>068-181200-
...SOUTHWEST COLORADO...

CITY           SKY/WX    TMP DP  RH WIND       PRES   REMARKS
DURANGO        FAIR      42  40  92 N3        30.20S
CORTEZ         FAIR      43  42  97 E3        30.15R
PAGOSA SPRINGS FAIR      41  40  97 CALM      30.27S
TELLURIDE      MOCLDY    44  39  82 SE8       30.34R
WOLF CREEK PAS FAIR      34  32  93 SW9       30.50S WCI  26
$$

COZ009-010-012-014-032>034-037-058>063-181200-
...CENTRAL COLORADO...

CITY           SKY/WX    TMP DP  RH WIND       PRES   REMARKS
ASPEN          MOCLDY    43  39  86 S9        30.24S
BUENA VISTA    FAIR      36  34  91 W5        30.28R
COPPER MTN     MOCLDY    37  30  75 W10       30.42R
BERTHOUD PASS  FAIR      30  23  74 W25       30.41R WCI  16
COTTONWOOD PAS FAIR      43  34  70 CALM      30.35R
GUNNISON       FAIR      38  36  92 CALM      30.30R
KREMMLING      FAIR      37  34  87 CALM      30.24F
LEADVILLE      CLOUDY    34  32  92 NE5       30.32S WCI  30
MONARCH PASS   FAIR      32  32 100 W23       30.53R WCI  19
SALIDA         FAIR      42  37  83 CALM      30.33R
SUNLIGHT       FAIR      36  28  75 SW6       30.39F
WILKERSON PASS FAIR      36  30  80 W6        30.42R
$$

COZ069>075-181200-
...SAN LUIS VALLEY/SANGRE DE CRISTO MOUNTAINS...

CITY           SKY/WX    TMP DP  RH WIND       PRES   REMARKS
ALAMOSA        FAIR      35  34  96 SW5       30.27S WCI  31
DEL NORTE      FAIR      38  35  87 W12       30.29R
LA VETA PASS   FAIR      39  37  93 SW17      30.45S
SAGUACHE       MOCLDY    41  37  87 NW5       30.29R
$$

COZ035-036-038>040-181200-
...NORTHERN COLORADO FRONT RANGE...

CITY           SKY/WX    TMP DP  RH WIND       PRES   REMARKS
DENVER INTL AP FAIR      51  45  79 SW9       30.07F
DMNS CITY PARK   N/A     53  47  82 E8        30.08S
AURORA         PTCLDY    50  46  86 SW7       30.10R
FRONT RANGE AP FAIR      54  48  82 SW10      30.09S
ERIE MUNI ARPT FAIR      47  44  88 S5        30.12S
BOULDER MUN AP FAIR      57  36  44 W7        30.07S
CENTENNIAL     FAIR      51  42  71 SW12      30.11R
BROOMFIELD     FAIR      52  43  71 CALM      30.10R
FORT COLLINS   FAIR      50  46  86 N3        30.07R
LONGMONT       FAIR      49  43  80 CALM      30.08S
$$

COZ041-046-047-076>085-087-088-181200-
...PIKES PEAK/PALMER DIVIDE AND SOUTHERN FOOTHILLS...

CITY           SKY/WX    TMP DP  RH WIND       PRES   REMARKS
COLO. SPRINGS  FAIR      51  44  77 NW6       30.13S
A. F. ACADEMY  FAIR      53  34  48 NE5       30.14R
SCHRIEVER AFB  MOCLDY    53  42  64 N6        30.12F
CHEYENNE MTN   NOT AVBL
ELLICOTT       NOT AVBL
FALCON         FAIR      48  40  73 NW3       30.16S
FORT CARSON    FAIR      51  42  72 NW8       30.10R
LIMON            N/A    N/A N/A N/A MISG      30.08R
MONUMENT HILL  FAIR      45  37  76 W9        30.18S
CANON CITY     CLEAR     55  45  67 W13       30.11R
WALSENBURG     FAIR      55  41  58 W12       30.15R
TRINIDAD       FAIR      56  52  86 W8        30.12S
$$

COZ042>045-048>051-090-091-181200-
...NORTHEAST COLORADO...

CITY           SKY/WX    TMP DP  RH WIND       PRES   REMARKS
GREELEY ARPT   FAIR      49  47  93 CALM      30.06S
AKRON          FAIR      55  51  86 SW10      30.03S
BURLINGTON     FAIR      51  50  96 NE6       30.02S
WRAY           CLOUDY    55  55 100 CALM      30.01S FOG
YUMA           FOG       50  48  93 SE6       30.02F VSB 1/2
STERLING       FAIR      52  50  93 W5        30.00S
HOLYOKE        CLOUDY    59  55  88 S7        30.02R
FORT MORGAN    FAIR      49  47  93 NW5       30.04S
$$

COZ086-089-092>099-181200-
...SOUTHEAST COLORADO...

CITY           SKY/WX    TMP DP  RH WIND       PRES   REMARKS
PUEBLO         FAIR      59  43  55 VRB5      30.06R
LA JUNTA       FAIR      54  50  86 SW6       30.03S
LAMAR          FAIR      54  51  90 SE8       30.00S
SPRINGFIELD      N/A     57  57 100 SW10G18   30.04R
$$




USA.gov is the U.S. government's official web portal to all federal, state and local government web resources and services.